Time,TemperatureF,DewpointF,PressureIn,WindDirection,WindDirectionDegrees,WindSpeedMPH,WindSpeedGustMPH,Humidity,HourlyPrecipIn,Conditions,Clouds,dailyrainin,SoftwareType,DateUTC
2013-01-22 00:00:00,3.7,0.7,30.26,NW,319,4.0,12.0,87,0.00,,,0.00,meteohub,2013-01-22 05:00:00,
2013-01-22 00:01:00,3.7,0.7,30.26,NW,317,6.0,12.0,87,0.00,,,0.00,meteohub,2013-01-22 05:01:00,
2013-01-22 00:03:00,3.7,0.7,30.26,NNW,341,5.0,12.0,87,0.00,,,0.00,meteohub,2013-01-22 05:03:00,
2013-01-22 00:08:00,3.6,0.5,30.26,NNW,328,3.0,12.0,87,0.00,,,0.00,meteohub,2013-01-22 05:08:00,
2013-01-22 00:13:00,3.6,0.5,30.26,NW,307,6.0,12.0,87,0.00,,,0.00,meteohub,2013-01-22 05:13:00,
2013-01-22 00:18:00,3.6,0.5,30.26,WNW,293,2.0,9.0,87,0.00,,,0.00,meteohub,2013-01-22 05:18:00,
2013-01-22 00:23:00,3.6,0.5,30.26,NW,304,5.0,9.0,87,0.00,,,0.00,meteohub,2013-01-22 05:23:00,
2013-01-22 00:28:00,3.6,0.5,30.26,NNW,340,6.0,9.0,87,0.00,,,0.00,meteohub,2013-01-22 05:28:00,
2013-01-22 00:33:00,3.6,0.5,30.26,NW,318,3.0,9.0,87,0.00,,,0.00,meteohub,2013-01-22 05:33:00,
2013-01-22 00:38:00,3.6,0.5,30.26,NW,304,3.0,9.0,87,0.00,,,0.00,meteohub,2013-01-22 05:38:00,
2013-01-22 00:44:00,3.4,0.3,30.26,North,6,3.0,9.0,87,0.00,,,0.00,meteohub,2013-01-22 05:44:00,
2013-01-22 00:49:00,3.4,0.3,30.26,North,352,4.0,11.0,87,0.00,,,0.00,meteohub,2013-01-22 05:49:00,
2013-01-22 00:54:00,3.0,0.0,30.26,North,4,5.0,11.0,87,0.00,,,0.00,meteohub,2013-01-22 05:54:00,
2013-01-22 00:59:00,2.8,-0.2,30.26,NNW,338,4.0,11.0,87,0.00,,,0.00,meteohub,2013-01-22 05:59:00,
2013-01-22 01:04:00,2.8,-0.2,30.26,NW,316,5.0,11.0,87,0.00,,,0.00,meteohub,2013-01-22 06:04:00,
2013-01-22 01:09:00,2.7,-0.4,30.27,NNE,32,8.0,11.0,87,0.00,,,0.00,meteohub,2013-01-22 06:09:00,
2013-01-22 01:14:00,2.5,-0.6,30.26,NNW,335,5.0,11.0,87,0.00,,,0.00,meteohub,2013-01-22 06:14:00,
2013-01-22 01:19:00,2.1,-1.1,30.27,North,357,6.0,11.0,86,0.00,,,0.00,meteohub,2013-01-22 06:19:00,
2013-01-22 01:24:00,1.9,-1.3,30.27,NNW,341,6.0,11.0,86,0.00,,,0.00,meteohub,2013-01-22 06:24:00,
2013-01-22 01:29:00,1.8,-1.1,30.27,North,352,4.0,11.0,87,0.00,,,0.00,meteohub,2013-01-22 06:29:00,
2013-01-22 01:34:00,1.8,-1.1,30.27,NW,312,5.0,11.0,87,0.00,,,0.00,meteohub,2013-01-22 06:34:00,
2013-01-22 01:39:00,1.6,-1.3,30.27,NNW,341,3.0,11.0,87,0.00,,,0.00,meteohub,2013-01-22 06:39:00,
2013-01-22 01:44:00,1.6,-1.3,30.27,NNW,328,3.0,11.0,87,0.00,,,0.00,meteohub,2013-01-22 06:44:00,
2013-01-22 01:49:00,1.6,-1.3,30.27,NNW,332,4.0,11.0,87,0.00,,,0.00,meteohub,2013-01-22 06:49:00,
2013-01-22 01:54:00,1.4,-1.5,30.27,North,1,5.0,13.0,87,0.00,,,0.00,meteohub,2013-01-22 06:54:00,
2013-01-22 01:59:00,1.4,-1.5,30.27,North,357,6.0,13.0,87,0.00,,,0.00,meteohub,2013-01-22 06:59:00,
2013-01-22 02:04:00,1.2,-1.7,30.27,NNW,343,3.0,13.0,87,0.00,,,0.00,meteohub,2013-01-22 07:04:00,
2013-01-22 02:09:00,1.2,-2.0,30.27,NNW,346,4.0,13.0,86,0.00,,,0.00,meteohub,2013-01-22 07:09:00,
2013-01-22 02:15:00,1.0,-1.8,30.27,North,355,3.0,10.0,87,0.00,,,0.00,meteohub,2013-01-22 07:15:00,
2013-01-22 02:20:00,1.0,-1.8,30.27,NNW,335,1.0,10.0,87,0.00,,,0.00,meteohub,2013-01-22 07:20:00,
2013-01-22 02:25:00,1.0,-1.8,30.28,NNW,343,3.0,10.0,87,0.00,,,0.00,meteohub,2013-01-22 07:25:00,
2013-01-22 02:30:00,1.0,-1.8,30.28,NNE,29,2.0,9.0,87,0.00,,,0.00,meteohub,2013-01-22 07:30:00,
2013-01-22 02:35:00,1.0,-1.8,30.28,ENE,60,1.0,9.0,87,0.00,,,0.00,meteohub,2013-01-22 07:35:00,
2013-01-22 02:40:00,0.9,-2.0,30.28,North,353,2.0,9.0,87,0.00,,,0.00,meteohub,2013-01-22 07:40:00,
2013-01-22 02:45:00,0.9,-2.0,30.29,NNW,338,3.0,9.0,87,0.00,,,0.00,meteohub,2013-01-22 07:45:00,
2013-01-22 02:50:00,0.9,-2.0,30.29,NNE,20,5.0,9.0,87,0.00,,,0.00,meteohub,2013-01-22 07:50:00,
2013-01-22 02:55:00,0.9,-2.0,30.29,NW,326,3.0,8.0,87,0.00,,,0.00,meteohub,2013-01-22 07:55:00,
2013-01-22 03:00:00,0.9,-2.0,30.29,NNE,29,2.0,8.0,87,0.00,,,0.00,meteohub,2013-01-22 08:00:00,
2013-01-22 03:05:00,0.9,-2.0,30.29,NNE,17,5.0,8.0,87,0.00,,,0.00,meteohub,2013-01-22 08:05:00,
2013-01-22 03:10:00,0.9,-2.0,30.29,NNW,346,2.0,8.0,87,0.00,,,0.00,meteohub,2013-01-22 08:10:00,
2013-01-22 03:15:00,0.9,-2.4,30.30,NW,322,6.0,8.0,86,0.00,,,0.00,meteohub,2013-01-22 08:15:00,
2013-01-22 03:20:00,0.9,-2.0,30.30,NNW,340,4.0,8.0,87,0.00,,,0.00,meteohub,2013-01-22 08:20:00,
2013-01-22 03:25:00,0.9,-2.0,30.30,NNW,332,3.0,8.0,87,0.00,,,0.00,meteohub,2013-01-22 08:25:00,
2013-01-22 03:30:00,0.9,-2.0,30.30,NNW,332,2.0,7.0,87,0.00,,,0.00,meteohub,2013-01-22 08:30:00,
2013-01-22 03:35:00,0.9,-2.0,30.30,NW,319,2.0,7.0,87,0.00,,,0.00,meteohub,2013-01-22 08:35:00,
2013-01-22 03:40:00,0.9,-2.0,30.30,North,353,1.0,7.0,87,0.00,,,0.00,meteohub,2013-01-22 08:40:00,
2013-01-22 03:45:00,0.9,-2.0,30.30,NNW,340,0.0,7.0,87,0.00,,,0.00,meteohub,2013-01-22 08:45:00,
2013-01-22 03:51:00,0.9,-2.0,30.30,NNW,337,1.0,4.0,87,0.00,,,0.00,meteohub,2013-01-22 08:51:00,
2013-01-22 03:56:00,0.9,-2.0,30.30,North,351,2.0,4.0,87,0.00,,,0.00,meteohub,2013-01-22 08:56:00,
2013-01-22 04:01:00,1.0,-1.8,30.30,NNW,343,1.0,4.0,87,0.00,,,0.00,meteohub,2013-01-22 09:01:00,
2013-01-22 04:06:00,1.0,-1.8,30.30,NW,316,1.0,4.0,87,0.00,,,0.00,meteohub,2013-01-22 09:06:00,
2013-01-22 04:11:00,1.0,-1.8,30.30,NNW,332,2.0,4.0,87,0.00,,,0.00,meteohub,2013-01-22 09:11:00,
2013-01-22 04:16:00,1.0,-1.8,30.30,North,8,1.0,5.0,87,0.00,,,0.00,meteohub,2013-01-22 09:16:00,
2013-01-22 04:21:00,1.0,-1.8,30.30,NNW,334,1.0,5.0,87,0.00,,,0.00,meteohub,2013-01-22 09:21:00,
2013-01-22 04:26:00,1.0,-1.8,30.31,NW,321,1.0,5.0,87,0.00,,,0.00,meteohub,2013-01-22 09:26:00,
2013-01-22 04:31:00,1.0,-1.8,30.31,North,8,1.0,4.0,87,0.00,,,0.00,meteohub,2013-01-22 09:31:00,
2013-01-22 04:36:00,1.0,-1.8,30.31,NNE,13,0.0,4.0,87,0.00,,,0.00,meteohub,2013-01-22 09:36:00,
2013-01-22 04:41:00,1.0,-1.8,30.31,NW,317,1.0,4.0,87,0.00,,,0.00,meteohub,2013-01-22 09:41:00,
2013-01-22 04:46:00,1.0,-1.8,30.31,NW,326,2.0,4.0,87,0.00,,,0.00,meteohub,2013-01-22 09:46:00,
2013-01-22 04:51:00,1.0,-1.8,30.31,NW,326,0.0,4.0,87,0.00,,,0.00,meteohub,2013-01-22 09:51:00,
2013-01-22 04:56:00,1.0,-1.8,30.31,North,355,1.0,2.0,87,0.00,,,0.00,meteohub,2013-01-22 09:56:00,
2013-01-22 05:01:00,1.0,-1.8,30.31,NW,326,0.0,2.0,87,0.00,,,0.00,meteohub,2013-01-22 10:01:00,
2013-01-22 05:06:00,1.0,-1.8,30.32,North,6,1.0,2.0,87,0.00,,,0.00,meteohub,2013-01-22 10:06:00,
2013-01-22 05:11:00,1.0,-1.8,30.32,North,354,1.0,2.0,87,0.00,,,0.00,meteohub,2013-01-22 10:11:00,
2013-01-22 05:16:00,0.9,-2.0,30.32,NE,41,0.0,2.0,87,0.00,,,0.00,meteohub,2013-01-22 10:16:00,
2013-01-22 05:21:00,0.9,-2.0,30.32,North,0,0.0,2.0,87,0.00,,,0.00,meteohub,2013-01-22 10:21:00,
2013-01-22 05:26:00,0.9,-2.0,30.32,NW,309,0.0,2.0,87,0.00,,,0.00,meteohub,2013-01-22 10:26:00,
2013-01-22 05:32:00,0.9,-2.0,30.32,North,353,0.0,3.0,87,0.00,,,0.00,meteohub,2013-01-22 10:32:00,
2013-01-22 05:37:00,0.9,-2.0,30.32,NNW,328,0.0,3.0,87,0.00,,,0.00,meteohub,2013-01-22 10:37:00,
2013-01-22 05:42:00,0.9,-2.0,30.32,NNW,328,0.0,3.0,87,0.00,,,0.00,meteohub,2013-01-22 10:42:00,
2013-01-22 05:47:00,0.9,-2.0,30.32,NNW,329,0.0,3.0,87,0.00,,,0.00,meteohub,2013-01-22 10:47:00,
2013-01-22 05:52:00,0.7,-2.2,30.32,NNW,328,0.0,3.0,87,0.00,,,0.00,meteohub,2013-01-22 10:52:00,
2013-01-22 05:57:00,0.7,-2.2,30.32,NNW,328,0.0,3.0,87,0.00,,,0.00,meteohub,2013-01-22 10:57:00,
2013-01-22 06:02:00,0.7,-2.2,30.32,NNE,18,0.0,0.0,87,0.00,,,0.00,meteohub,2013-01-22 11:02:00,
2013-01-22 06:07:00,0.7,-2.2,30.32,NNE,18,0.0,0.0,87,0.00,,,0.00,meteohub,2013-01-22 11:07:00,
2013-01-22 06:12:00,0.7,-2.2,30.33,NNE,18,0.0,0.0,87,0.00,,,0.00,meteohub,2013-01-22 11:12:00,
2013-01-22 06:17:00,0.7,-2.2,30.33,NNE,18,0.0,0.0,87,0.00,,,0.00,meteohub,2013-01-22 11:17:00,
2013-01-22 06:22:00,0.7,-2.2,30.33,North,6,0.0,0.0,87,0.00,,,0.00,meteohub,2013-01-22 11:22:00,
2013-01-22 06:27:00,0.7,-2.2,30.33,North,6,0.0,0.0,87,0.00,,,0.00,meteohub,2013-01-22 11:27:00,
2013-01-22 06:32:00,0.7,-2.2,30.33,North,6,0.0,0.0,87,0.00,,,0.00,meteohub,2013-01-22 11:32:00,
2013-01-22 06:38:00,0.5,-2.4,30.34,North,6,0.0,0.0,87,0.00,,,0.00,meteohub,2013-01-22 11:38:00,
2013-01-22 06:43:00,0.5,-2.4,30.34,North,6,0.0,1.0,87,0.00,,,0.00,meteohub,2013-01-22 11:43:00,
2013-01-22 06:48:00,0.5,-2.4,30.34,North,6,0.0,1.0,87,0.00,,,0.00,meteohub,2013-01-22 11:48:00,
2013-01-22 06:53:00,0.3,-2.6,30.34,North,6,0.0,1.0,87,0.00,,,0.00,meteohub,2013-01-22 11:53:00,
2013-01-22 06:58:00,0.3,-2.6,30.34,North,6,0.0,1.0,87,0.00,,,0.00,meteohub,2013-01-22 11:58:00,
2013-01-22 07:03:00,0.1,-2.7,30.34,SW,226,0.0,1.0,87,0.00,,,0.00,meteohub,2013-01-22 12:03:00,
2013-01-22 07:08:00,0.1,-2.7,30.35,SW,219,0.0,1.0,87,0.00,,,0.00,meteohub,2013-01-22 12:08:00,
2013-01-22 07:13:00,0.1,-2.7,30.35,SSW,203,0.0,1.0,87,0.00,,,0.00,meteohub,2013-01-22 12:13:00,
2013-01-22 07:18:00,0.1,-2.7,30.35,SSW,203,0.0,1.0,87,0.00,,,0.00,meteohub,2013-01-22 12:18:00,
2013-01-22 07:23:00,0.0,-2.9,30.35,SSE,163,1.0,1.0,87,0.00,,,0.00,meteohub,2013-01-22 12:23:00,
2013-01-22 07:28:00,0.0,-2.9,30.35,South,184,2.0,2.0,87,0.00,,,0.00,meteohub,2013-01-22 12:28:00,
2013-01-22 07:33:00,0.0,-2.9,30.35,SE,134,2.0,2.0,87,0.00,,,0.00,meteohub,2013-01-22 12:33:00,
2013-01-22 07:38:00,0.0,-2.9,30.35,South,187,2.0,2.0,87,0.00,,,0.00,meteohub,2013-01-22 12:38:00,
2013-01-22 07:44:00,-0.2,-3.1,30.35,South,176,2.0,2.0,87,0.00,,,0.00,meteohub,2013-01-22 12:44:00,
2013-01-22 07:49:00,-0.2,-3.1,30.35,South,180,2.0,2.0,87,0.00,,,0.00,meteohub,2013-01-22 12:49:00,
2013-01-22 07:54:00,-0.4,-3.3,30.36,SSE,163,2.0,2.0,87,0.00,,,0.00,meteohub,2013-01-22 12:54:00,
2013-01-22 07:59:00,-0.4,-3.3,30.36,South,169,1.0,2.0,87,0.00,,,0.00,meteohub,2013-01-22 12:59:00,
2013-01-22 08:04:00,-0.6,-3.5,30.36,ESE,122,0.0,2.0,87,0.00,,,0.00,meteohub,2013-01-22 13:04:00,
2013-01-22 08:16:00,-0.9,-3.8,30.36,SE,130,1.0,2.0,87,0.00,,,0.00,meteohub,2013-01-22 13:16:00,
2013-01-22 08:21:00,-0.9,-3.8,30.36,SE,131,0.0,2.0,87,0.00,,,0.00,meteohub,2013-01-22 13:21:00,
2013-01-22 08:26:00,-1.1,-4.0,30.36,East,96,0.0,2.0,87,0.00,,,0.00,meteohub,2013-01-22 13:26:00,
2013-01-22 08:31:00,-1.1,-4.0,30.36,East,98,0.0,2.0,87,0.00,,,0.00,meteohub,2013-01-22 13:31:00,
2013-01-22 08:36:00,-1.1,-4.0,30.37,ESE,119,0.0,2.0,87,0.00,,,0.00,meteohub,2013-01-22 13:36:00,
2013-01-22 08:41:00,-1.1,-4.0,30.37,South,183,2.0,2.0,87,0.00,,,0.00,meteohub,2013-01-22 13:41:00,
2013-01-22 08:46:00,-0.9,-3.8,30.37,SSE,158,2.0,2.0,87,0.00,,,0.00,meteohub,2013-01-22 13:46:00,
2013-01-22 08:52:00,-0.8,-3.6,30.37,ESE,113,2.0,3.0,87,0.00,,,0.00,meteohub,2013-01-22 13:52:00,
2013-01-22 08:57:00,-0.6,-3.5,30.38,ESE,117,2.0,3.0,87,0.00,,,0.00,meteohub,2013-01-22 13:57:00,
2013-01-22 09:02:00,-0.4,-3.3,30.38,SSE,158,2.0,3.0,87,0.00,,,0.00,meteohub,2013-01-22 14:02:00,
2013-01-22 09:07:00,-0.2,-3.1,30.38,SE,146,3.0,3.0,87,0.00,,,0.00,meteohub,2013-01-22 14:07:00,
2013-01-22 09:12:00,0.1,-2.7,30.38,SE,124,2.0,3.0,87,0.00,,,0.00,meteohub,2013-01-22 14:12:00,
2013-01-22 09:17:00,0.1,-2.7,30.38,ESE,121,3.0,3.0,87,0.00,,,0.00,meteohub,2013-01-22 14:17:00,
2013-01-22 09:22:00,0.1,-3.1,30.38,ESE,107,1.0,4.0,86,0.00,,,0.00,meteohub,2013-01-22 14:22:00,
2013-01-22 09:27:00,0.1,-3.1,30.38,ESE,119,2.0,4.0,86,0.00,,,0.00,meteohub,2013-01-22 14:27:00,
2013-01-22 09:32:00,0.1,-3.1,30.38,ESE,107,3.0,4.0,86,0.00,,,0.00,meteohub,2013-01-22 14:32:00,
2013-01-22 09:37:00,0.1,-3.1,30.38,SE,130,3.0,4.0,86,0.00,,,0.00,meteohub,2013-01-22 14:37:00,
2013-01-22 09:42:00,0.3,-2.9,30.39,ESE,115,3.0,4.0,86,0.00,,,0.00,meteohub,2013-01-22 14:42:00,
2013-01-22 09:47:00,0.3,-2.9,30.39,ESE,121,3.0,4.0,86,0.00,,,0.00,meteohub,2013-01-22 14:47:00,
2013-01-22 09:52:00,0.7,-2.6,30.39,ESE,118,4.0,4.0,86,0.00,,,0.00,meteohub,2013-01-22 14:52:00,
2013-01-22 09:57:00,0.9,-2.4,30.39,ESE,116,3.0,4.0,86,0.00,,,0.00,meteohub,2013-01-22 14:57:00,
2013-01-22 10:03:00,1.2,-2.0,30.39,SE,138,2.0,4.0,86,0.00,,,0.00,meteohub,2013-01-22 15:03:00,
2013-01-22 10:08:00,1.4,-1.8,30.40,ESE,118,3.0,4.0,86,0.00,,,0.00,meteohub,2013-01-22 15:08:00,
2013-01-22 10:13:00,1.6,-1.7,30.39,SE,129,2.0,4.0,86,0.00,,,0.00,meteohub,2013-01-22 15:13:00,
2013-01-22 10:18:00,1.8,-1.5,30.40,ESE,111,2.0,4.0,86,0.00,,,0.00,meteohub,2013-01-22 15:18:00,
2013-01-22 10:23:00,1.9,-1.3,30.40,ESE,113,2.0,4.0,86,0.00,,,0.00,meteohub,2013-01-22 15:23:00,
2013-01-22 10:28:00,2.1,-0.9,30.40,ESE,121,2.0,4.0,87,0.00,,,0.00,meteohub,2013-01-22 15:28:00,
2013-01-22 10:33:00,2.7,-0.4,30.40,ESE,113,3.0,4.0,87,0.00,,,0.00,meteohub,2013-01-22 15:33:00,
2013-01-22 10:38:00,3.0,0.0,30.39,SE,127,2.0,4.0,87,0.00,,,0.00,meteohub,2013-01-22 15:38:00,
2013-01-22 10:43:00,3.4,0.3,30.40,ESE,112,2.0,4.0,87,0.00,,,0.00,meteohub,2013-01-22 15:43:00,
2013-01-22 10:48:00,3.7,0.7,30.40,ESE,121,1.0,4.0,87,0.00,,,0.00,meteohub,2013-01-22 15:48:00,
2013-01-22 10:53:00,4.3,1.2,30.40,SE,139,1.0,3.0,87,0.00,,,0.00,meteohub,2013-01-22 15:53:00,
2013-01-22 10:58:00,4.6,1.6,30.40,SE,129,1.0,3.0,87,0.00,,,0.00,meteohub,2013-01-22 15:58:00,
2013-01-22 11:04:00,5.0,1.9,30.40,SSE,147,0.0,3.0,87,0.00,,,0.00,meteohub,2013-01-22 16:04:00,
2013-01-22 11:09:00,5.4,2.3,30.40,ESE,113,0.0,3.0,87,0.00,,,0.00,meteohub,2013-01-22 16:09:00,
2013-01-22 11:14:00,5.7,2.7,30.40,SSE,155,0.0,3.0,87,0.00,,,0.00,meteohub,2013-01-22 16:14:00,
2013-01-22 11:19:00,6.3,3.2,30.40,SSE,161,1.0,3.0,87,0.00,,,0.00,meteohub,2013-01-22 16:19:00,
2013-01-22 11:24:00,6.6,3.6,30.40,SE,137,0.0,3.0,87,0.00,,,0.00,meteohub,2013-01-22 16:24:00,
2013-01-22 11:29:00,7.2,4.1,30.40,SE,144,0.0,2.0,87,0.00,,,0.00,meteohub,2013-01-22 16:29:00,
2013-01-22 11:34:00,7.7,4.6,30.40,SE,141,1.0,2.0,87,0.00,,,0.00,meteohub,2013-01-22 16:34:00,
2013-01-22 11:39:00,8.6,5.7,30.40,SE,135,0.0,2.0,88,0.00,,,0.00,meteohub,2013-01-22 16:39:00,
2013-01-22 11:48:00,9.9,6.8,30.39,East,101,0.0,2.0,87,0.00,,,0.00,meteohub,2013-01-22 16:48:00,
2013-01-22 11:53:00,10.0,6.6,30.39,NE,56,1.0,1.0,86,0.00,,,0.00,meteohub,2013-01-22 16:53:00,
2013-01-22 11:58:00,9.5,6.1,30.39,ENE,62,0.0,1.0,86,0.00,,,0.00,meteohub,2013-01-22 16:58:00,
2013-01-22 12:04:00,10.4,7.9,30.38,SSE,166,0.0,1.0,89,0.00,,,0.00,meteohub,2013-01-22 17:04:00,
2013-01-22 12:09:00,11.1,8.2,30.38,SSE,149,0.0,1.0,88,0.00,,,0.00,meteohub,2013-01-22 17:09:00,
2013-01-22 12:14:00,11.5,8.1,30.38,SSE,153,0.0,1.0,86,0.00,,,0.00,meteohub,2013-01-22 17:14:00,
2013-01-22 12:19:00,12.0,9.0,30.38,NW,316,2.0,2.0,87,0.00,,,0.00,meteohub,2013-01-22 17:19:00,
2013-01-22 12:24:00,10.9,6.8,30.38,West,281,2.0,2.0,83,0.00,,,0.00,meteohub,2013-01-22 17:24:00,
2013-01-22 12:29:00,9.9,5.5,30.38,West,278,4.0,4.0,82,0.00,,,0.00,meteohub,2013-01-22 17:29:00,
2013-01-22 12:34:00,9.3,5.2,30.38,West,259,6.0,6.0,83,0.00,,,0.00,meteohub,2013-01-22 17:34:00,
2013-01-22 12:39:00,9.1,5.0,30.37,West,264,5.0,5.0,83,0.00,,,0.00,meteohub,2013-01-22 17:39:00,
2013-01-22 12:44:00,8.8,5.0,30.37,WNW,292,5.0,5.0,84,0.00,,,0.00,meteohub,2013-01-22 17:44:00,
2013-01-22 12:49:00,8.4,4.8,30.37,West,280,2.0,4.0,85,0.00,,,0.00,meteohub,2013-01-22 17:49:00,
2013-01-22 12:54:00,8.2,4.5,30.36,WNW,282,7.0,10.0,84,0.00,,,0.00,meteohub,2013-01-22 17:54:00,
2013-01-22 12:59:00,8.1,4.8,30.36,WNW,290,8.0,10.0,86,0.00,,,0.00,meteohub,2013-01-22 17:59:00,
2013-01-22 13:05:00,8.1,4.8,30.36,WNW,298,8.0,10.0,86,0.00,,,0.00,meteohub,2013-01-22 18:05:00,
2013-01-22 13:10:00,8.1,5.0,30.36,WNW,287,7.0,10.0,87,0.00,,,0.00,meteohub,2013-01-22 18:10:00,
2013-01-22 13:15:00,8.1,5.0,30.36,West,279,8.0,10.0,87,0.00,,,0.00,meteohub,2013-01-22 18:15:00,
2013-01-22 13:20:00,8.2,5.2,30.36,WNW,283,7.0,10.0,87,0.00,,,0.00,meteohub,2013-01-22 18:20:00,
2013-01-22 13:25:00,8.1,5.0,30.36,WNW,290,8.0,14.0,87,0.00,,,0.00,meteohub,2013-01-22 18:25:00,
2013-01-22 13:30:00,8.2,5.2,30.36,WNW,292,7.0,14.0,87,0.00,,,0.00,meteohub,2013-01-22 18:30:00,
2013-01-22 13:35:00,8.4,5.4,30.36,West,277,11.0,14.0,87,0.00,,,0.00,meteohub,2013-01-22 18:35:00,
2013-01-22 13:40:00,8.8,5.9,30.36,NW,307,9.0,13.0,88,0.00,,,0.00,meteohub,2013-01-22 18:40:00,
2013-01-22 13:45:00,8.8,5.7,30.36,WNW,301,9.0,13.0,87,0.00,,,0.00,meteohub,2013-01-22 18:45:00,
2013-01-22 13:50:00,8.8,5.7,30.35,WNW,298,12.0,13.0,87,0.00,,,0.00,meteohub,2013-01-22 18:50:00,
2013-01-22 13:55:00,8.4,5.2,30.36,WNW,287,10.0,13.0,86,0.00,,,0.00,meteohub,2013-01-22 18:55:00,
2013-01-22 14:00:00,8.4,5.4,30.36,WNW,283,6.0,20.0,87,0.00,,,0.00,meteohub,2013-01-22 19:00:00,
2013-01-22 14:05:00,9.0,5.9,30.35,WNW,290,13.0,20.0,87,0.00,,,0.00,meteohub,2013-01-22 19:05:00,
2013-01-22 14:10:00,9.0,5.7,30.35,WNW,293,6.0,20.0,86,0.00,,,0.00,meteohub,2013-01-22 19:10:00,
2013-01-22 14:15:00,9.3,5.9,30.35,WNW,298,13.0,20.0,86,0.00,,,0.00,meteohub,2013-01-22 19:15:00,
2013-01-22 14:21:00,8.8,5.0,30.36,WNW,287,11.0,18.0,84,0.00,,,0.00,meteohub,2013-01-22 19:21:00,
2013-01-22 14:26:00,8.4,4.8,30.36,NW,311,8.0,18.0,85,0.00,,,0.00,meteohub,2013-01-22 19:26:00,
2013-01-22 14:31:00,8.4,4.8,30.36,West,281,10.0,18.0,85,0.00,,,0.00,meteohub,2013-01-22 19:31:00,
2013-01-22 14:36:00,8.2,4.5,30.36,West,273,15.0,18.0,84,0.00,,,0.00,meteohub,2013-01-22 19:36:00,
2013-01-22 14:41:00,8.1,3.9,30.36,WNW,287,13.0,18.0,83,0.00,,,0.00,meteohub,2013-01-22 19:41:00,
2013-01-22 14:46:00,7.9,4.1,30.36,WNW,290,9.0,18.0,84,0.00,,,0.00,meteohub,2013-01-22 19:46:00,
2013-01-22 14:51:00,8.1,4.5,30.36,WNW,289,9.0,18.0,85,0.00,,,0.00,meteohub,2013-01-22 19:51:00,
2013-01-22 14:56:00,8.2,4.1,30.36,WNW,283,9.0,18.0,83,0.00,,,0.00,meteohub,2013-01-22 19:56:00,
2013-01-22 15:01:00,8.4,4.6,30.36,WNW,295,10.0,14.0,84,0.00,,,0.00,meteohub,2013-01-22 20:01:00,
2013-01-22 15:06:00,8.4,4.3,30.36,WNW,287,9.0,14.0,83,0.00,,,0.00,meteohub,2013-01-22 20:06:00,
2013-01-22 15:12:00,8.4,4.6,30.36,WNW,295,7.0,14.0,84,0.00,,,0.00,meteohub,2013-01-22 20:12:00,
2013-01-22 15:17:00,8.4,4.8,30.36,WNW,293,10.0,14.0,85,0.00,,,0.00,meteohub,2013-01-22 20:17:00,
2013-01-22 15:22:00,8.6,5.0,30.36,West,280,11.0,14.0,85,0.00,,,0.00,meteohub,2013-01-22 20:22:00,
2013-01-22 15:28:00,8.6,5.0,30.36,WNW,283,7.0,14.0,85,0.00,,,0.00,meteohub,2013-01-22 20:28:00,
2013-01-22 15:33:00,8.4,4.3,30.36,WNW,292,16.0,16.0,83,0.00,,,0.00,meteohub,2013-01-22 20:33:00,
2013-01-22 15:38:00,8.4,4.1,30.36,West,281,5.0,14.0,82,0.00,,,0.00,meteohub,2013-01-22 20:38:00,
2013-01-22 15:43:00,8.4,3.7,30.36,WNW,284,5.0,16.0,81,0.00,,,0.00,meteohub,2013-01-22 20:43:00,
2013-01-22 15:48:00,8.6,3.7,30.36,WNW,287,7.0,16.0,80,0.00,,,0.00,meteohub,2013-01-22 20:48:00,
2013-01-22 15:53:00,8.6,3.4,30.36,WNW,301,8.0,16.0,79,0.00,,,0.00,meteohub,2013-01-22 20:53:00,
2013-01-22 15:58:00,8.8,4.1,30.36,WNW,287,7.0,16.0,81,0.00,,,0.00,meteohub,2013-01-22 20:58:00,
2013-01-22 16:03:00,8.8,3.6,30.36,WNW,283,7.0,16.0,79,0.00,,,0.00,meteohub,2013-01-22 21:03:00,
2013-01-22 16:08:00,8.6,3.7,30.36,WNW,303,10.0,16.0,80,0.00,,,0.00,meteohub,2013-01-22 21:08:00,
2013-01-22 16:13:00,8.4,4.1,30.36,West,281,7.0,16.0,82,0.00,,,0.00,meteohub,2013-01-22 21:13:00,
2013-01-22 16:18:00,8.4,4.6,30.36,WNW,290,7.0,16.0,84,0.00,,,0.00,meteohub,2013-01-22 21:18:00,
2013-01-22 16:23:00,8.2,4.6,30.37,West,273,7.0,13.0,85,0.00,,,0.00,meteohub,2013-01-22 21:23:00,
2013-01-22 16:28:00,8.2,5.0,30.37,WNW,283,8.0,13.0,86,0.00,,,0.00,meteohub,2013-01-22 21:28:00,
2013-01-22 16:32:00,8.1,4.8,30.37,West,276,9.0,13.0,86,0.00,,,0.00,meteohub,2013-01-22 21:32:00,
2013-01-22 16:37:00,8.1,5.0,30.37,West,281,6.0,13.0,87,0.00,,,0.00,meteohub,2013-01-22 21:37:00,
2013-01-22 16:42:00,8.1,5.0,30.37,WNW,298,12.0,12.0,87,0.00,,,0.00,meteohub,2013-01-22 21:42:00,
2013-01-22 16:47:00,8.1,5.0,30.37,WNW,293,6.0,12.0,87,0.00,,,0.00,meteohub,2013-01-22 21:47:00,
2013-01-22 16:52:00,8.1,5.0,30.37,WNW,287,6.0,12.0,87,0.00,,,0.00,meteohub,2013-01-22 21:52:00,
2013-01-22 16:57:00,8.1,5.0,30.37,West,281,4.0,12.0,87,0.00,,,0.00,meteohub,2013-01-22 21:57:00,
2013-01-22 17:02:00,8.1,5.2,30.37,WNW,295,2.0,11.0,88,0.00,,,0.00,meteohub,2013-01-22 22:02:00,
2013-01-22 17:08:00,8.1,5.2,30.37,WNW,295,5.0,11.0,88,0.00,,,0.00,meteohub,2013-01-22 22:08:00,
2013-01-22 17:13:00,8.1,5.2,30.37,WNW,284,5.0,11.0,88,0.00,,,0.00,meteohub,2013-01-22 22:13:00,
2013-01-22 17:18:00,8.1,5.2,30.38,WNW,298,5.0,11.0,88,0.00,,,0.00,meteohub,2013-01-22 22:18:00,
2013-01-22 17:23:00,8.1,5.2,30.37,WNW,301,5.0,8.0,88,0.00,,,0.00,meteohub,2013-01-22 22:23:00,
2013-01-22 17:28:00,8.1,5.2,30.38,WNW,295,5.0,8.0,88,0.00,,,0.00,meteohub,2013-01-22 22:28:00,
2013-01-22 17:33:00,8.1,5.2,30.38,WNW,298,6.0,8.0,88,0.00,,,0.00,meteohub,2013-01-22 22:33:00,
2013-01-22 17:38:00,8.1,5.2,30.38,WNW,289,3.0,8.0,88,0.00,,,0.00,meteohub,2013-01-22 22:38:00,
2013-01-22 17:43:00,8.1,5.5,30.38,WNW,301,4.0,7.0,89,0.00,,,0.00,meteohub,2013-01-22 22:43:00,
2013-01-22 17:48:00,8.1,5.5,30.38,WNW,298,3.0,7.0,89,0.00,,,0.00,meteohub,2013-01-22 22:48:00,
2013-01-22 17:53:00,8.1,5.5,30.38,WNW,293,3.0,7.0,89,0.00,,,0.00,meteohub,2013-01-22 22:53:00,
2013-01-22 17:58:00,8.1,5.5,30.38,WNW,292,3.0,7.0,89,0.00,,,0.00,meteohub,2013-01-22 22:58:00,
2013-01-22 18:03:00,8.1,5.5,30.38,WNW,301,3.0,7.0,89,0.00,,,0.00,meteohub,2013-01-22 23:03:00,
2013-01-22 18:08:00,8.1,5.5,30.38,West,280,1.0,7.0,89,0.00,,,0.00,meteohub,2013-01-22 23:08:00,
2013-01-22 18:13:00,8.1,5.5,30.38,WNW,287,2.0,7.0,89,0.00,,,0.00,meteohub,2013-01-22 23:13:00,
2013-01-22 18:18:00,8.1,5.5,30.38,West,277,2.0,7.0,89,0.00,,,0.00,meteohub,2013-01-22 23:18:00,
2013-01-22 18:23:00,8.1,5.5,30.38,WNW,293,1.0,6.0,89,0.00,,,0.00,meteohub,2013-01-22 23:23:00,
2013-01-22 18:28:00,7.9,5.4,30.38,WNW,290,1.0,6.0,89,0.00,,,0.00,meteohub,2013-01-22 23:28:00,
2013-01-22 18:33:00,7.9,5.4,30.38,WNW,290,1.0,6.0,89,0.00,,,0.00,meteohub,2013-01-22 23:33:00,
2013-01-22 18:38:00,8.1,5.5,30.38,WNW,287,2.0,6.0,89,0.00,,,0.00,meteohub,2013-01-22 23:38:00,
2013-01-22 18:43:00,8.1,5.5,30.38,WNW,283,3.0,6.0,89,0.00,,,0.00,meteohub,2013-01-22 23:43:00,
2013-01-22 18:48:00,8.1,5.5,30.38,West,278,1.0,6.0,89,0.00,,,0.00,meteohub,2013-01-22 23:48:00,
2013-01-22 18:53:00,8.1,5.5,30.38,WNW,292,2.0,4.0,89,0.00,,,0.00,meteohub,2013-01-22 23:53:00,
2013-01-22 18:58:00,8.1,5.5,30.38,WNW,298,2.0,4.0,89,0.00,,,0.00,meteohub,2013-01-22 23:58:00,
2013-01-22 19:03:00,8.1,5.5,30.38,NW,316,2.0,4.0,89,0.00,,,0.00,meteohub,2013-01-23 00:03:00,
2013-01-22 19:08:00,8.1,5.5,30.38,WNW,298,1.0,4.0,89,0.00,,,0.00,meteohub,2013-01-23 00:08:00,
2013-01-22 19:13:00,8.1,5.5,30.38,WNW,300,0.0,4.0,89,0.00,,,0.00,meteohub,2013-01-23 00:13:00,
2013-01-22 19:18:00,8.1,5.5,30.38,North,5,1.0,4.0,89,0.00,,,0.00,meteohub,2013-01-23 00:18:00,
2013-01-22 19:24:00,8.1,5.5,30.38,NNW,346,1.0,3.0,89,0.00,,,0.00,meteohub,2013-01-23 00:24:00,
2013-01-22 19:29:00,8.1,5.5,30.38,NNE,26,2.0,3.0,89,0.00,,,0.00,meteohub,2013-01-23 00:29:00,
2013-01-22 19:34:00,7.7,5.2,30.38,NNE,29,3.0,3.0,89,0.00,,,0.00,meteohub,2013-01-23 00:34:00,
2013-01-22 19:39:00,7.5,4.6,30.38,NE,40,1.0,3.0,88,0.00,,,0.00,meteohub,2013-01-23 00:39:00,
2013-01-22 19:44:00,7.3,4.8,30.38,NNE,31,2.0,4.0,89,0.00,,,0.00,meteohub,2013-01-23 00:44:00,
2013-01-22 19:49:00,7.3,4.5,30.38,North,11,1.0,4.0,88,0.00,,,0.00,meteohub,2013-01-23 00:49:00,
2013-01-22 19:54:00,7.2,4.6,30.38,NNE,20,0.0,4.0,89,0.00,,,0.00,meteohub,2013-01-23 00:54:00,
2013-01-22 19:59:00,7.2,4.6,30.38,NNE,19,1.0,5.0,89,0.00,,,0.00,meteohub,2013-01-23 00:59:00,
2013-01-22 20:04:00,7.2,4.3,30.38,NNE,29,1.0,5.0,88,0.00,,,0.00,meteohub,2013-01-23 01:04:00,
2013-01-22 20:09:00,7.0,4.1,30.38,NNE,29,2.0,5.0,88,0.00,,,0.00,meteohub,2013-01-23 01:09:00,
2013-01-22 20:14:00,7.0,4.1,30.38,NE,49,1.0,5.0,88,0.00,,,0.00,meteohub,2013-01-23 01:14:00,
2013-01-22 20:16:00,7.0,4.1,30.38,NNE,27,0.0,5.0,88,0.00,,,0.00,meteohub,2013-01-23 01:16:00,
2013-01-22 20:32:00,6.8,4.3,30.38,North,356,2.0,5.0,89,0.00,,,0.00,meteohub,2013-01-23 01:32:00,
2013-01-22 20:37:00,7.0,4.5,30.38,ENE,65,0.0,5.0,89,0.00,,,0.00,meteohub,2013-01-23 01:37:00,
2013-01-22 20:42:00,6.8,4.3,30.38,NE,40,3.0,4.0,89,0.00,,,0.00,meteohub,2013-01-23 01:42:00,
2013-01-22 20:47:00,6.8,4.3,30.38,NNE,15,0.0,4.0,89,0.00,,,0.00,meteohub,2013-01-23 01:47:00,
2013-01-22 20:52:00,6.8,3.9,30.38,North,357,0.0,4.0,88,0.00,,,0.00,meteohub,2013-01-23 01:52:00,
2013-01-22 20:57:00,6.6,3.7,30.38,NE,37,2.0,4.0,88,0.00,,,0.00,meteohub,2013-01-23 01:57:00,
2013-01-22 21:02:00,6.6,3.7,30.38,NE,40,1.0,4.0,88,0.00,,,0.00,meteohub,2013-01-23 02:02:00,
2013-01-22 21:07:00,6.6,4.1,30.38,NE,40,0.0,4.0,89,0.00,,,0.00,meteohub,2013-01-23 02:07:00,
2013-01-22 21:12:00,6.6,3.7,30.38,NE,41,0.0,4.0,88,0.00,,,0.00,meteohub,2013-01-23 02:12:00,
2013-01-22 21:17:00,6.6,3.7,30.38,North,4,2.0,4.0,88,0.00,,,0.00,meteohub,2013-01-23 02:17:00,
2013-01-22 21:22:00,6.4,3.7,30.38,ENE,57,0.0,4.0,88,0.00,,,0.00,meteohub,2013-01-23 02:22:00,
2013-01-22 21:27:00,6.4,3.7,30.38,NE,49,0.0,4.0,88,0.00,,,0.00,meteohub,2013-01-23 02:27:00,
2013-01-22 21:34:00,6.4,3.7,30.38,East,89,0.0,4.0,88,0.00,,,0.00,meteohub,2013-01-23 02:34:00,
2013-01-22 21:39:00,6.4,3.7,30.38,ENE,71,0.0,3.0,88,0.00,,,0.00,meteohub,2013-01-23 02:39:00,
2013-01-22 21:44:00,6.3,3.6,30.38,NE,37,0.0,3.0,88,0.00,,,0.00,meteohub,2013-01-23 02:44:00,
2013-01-22 21:49:00,6.1,3.4,30.38,NE,54,0.0,3.0,88,0.00,,,0.00,meteohub,2013-01-23 02:49:00,
2013-01-22 21:54:00,6.1,3.4,30.38,ENE,57,0.0,3.0,88,0.00,,,0.00,meteohub,2013-01-23 02:54:00,
2013-01-22 21:59:00,5.7,3.0,30.38,ENE,57,0.0,2.0,88,0.00,,,0.00,meteohub,2013-01-23 02:59:00,
2013-01-22 22:04:00,5.5,2.8,30.38,East,88,0.0,2.0,88,0.00,,,0.00,meteohub,2013-01-23 03:04:00,
2013-01-22 22:10:00,5.5,2.8,30.38,East,87,0.0,2.0,88,0.00,,,0.00,meteohub,2013-01-23 03:10:00,
2013-01-22 22:15:00,5.4,2.7,30.38,East,88,0.0,2.0,88,0.00,,,0.00,meteohub,2013-01-23 03:15:00,
2013-01-22 22:20:00,5.2,2.5,30.38,East,88,0.0,1.0,88,0.00,,,0.00,meteohub,2013-01-23 03:20:00,
2013-01-22 22:25:00,4.8,2.1,30.38,East,87,0.0,1.0,88,0.00,,,0.00,meteohub,2013-01-23 03:25:00,
2013-01-22 22:30:00,4.8,2.1,30.38,East,87,0.0,1.0,88,0.00,,,0.00,meteohub,2013-01-23 03:30:00,
2013-01-22 22:35:00,4.6,1.9,30.38,East,88,0.0,1.0,88,0.00,,,0.00,meteohub,2013-01-23 03:35:00,
2013-01-22 22:40:00,4.5,1.8,30.39,East,87,0.0,1.0,88,0.00,,,0.00,meteohub,2013-01-23 03:40:00,
2013-01-22 22:45:00,4.5,1.8,30.39,East,87,0.0,1.0,88,0.00,,,0.00,meteohub,2013-01-23 03:45:00,
2013-01-22 22:50:00,4.5,1.8,30.39,East,87,0.0,1.0,88,0.00,,,0.00,meteohub,2013-01-23 03:50:00,
2013-01-22 22:55:00,4.5,1.9,30.39,East,88,0.0,1.0,89,0.00,,,0.00,meteohub,2013-01-23 03:55:00,
2013-01-22 23:00:00,4.6,2.1,30.39,East,101,1.0,1.0,89,0.00,,,0.00,meteohub,2013-01-23 04:00:00,
2013-01-22 23:05:00,4.8,2.3,30.39,ESE,102,0.0,1.0,89,0.00,,,0.00,meteohub,2013-01-23 04:05:00,
2013-01-22 23:10:00,4.8,2.3,30.39,East,89,1.0,1.0,89,0.00,,,0.00,meteohub,2013-01-23 04:10:00,
2013-01-22 23:15:00,4.8,2.3,30.40,ENE,75,0.0,1.0,89,0.00,,,0.00,meteohub,2013-01-23 04:15:00,
2013-01-22 23:20:00,5.0,2.5,30.40,East,79,1.0,2.0,89,0.00,,,0.00,meteohub,2013-01-23 04:20:00,
2013-01-22 23:25:00,5.0,2.3,30.40,East,86,1.0,2.0,88,0.00,,,0.00,meteohub,2013-01-23 04:25:00,
2013-01-22 23:30:00,5.0,2.3,30.40,East,88,2.0,2.0,88,0.00,,,0.00,meteohub,2013-01-23 04:30:00,
2013-01-22 23:36:00,5.2,2.5,30.41,East,79,2.0,2.0,88,0.00,,,0.00,meteohub,2013-01-23 04:36:00,
2013-01-22 23:41:00,5.2,2.5,30.40,East,99,1.0,3.0,88,0.00,,,0.00,meteohub,2013-01-23 04:41:00,
2013-01-22 23:46:00,5.2,2.5,30.40,ENE,74,0.0,3.0,88,0.00,,,0.00,meteohub,2013-01-23 04:46:00,
2013-01-22 23:51:00,5.2,2.5,30.41,ESE,110,0.0,3.0,88,0.00,,,0.00,meteohub,2013-01-23 04:51:00,
2013-01-22 23:56:00,5.2,2.5,30.40,ESE,110,0.0,3.0,88,0.00,,,0.00,meteohub,2013-01-23 04:56:00,